Volver al catálogo

STARLINK-35997

ActivoComunicacionesVLEO
NORAD 66843·PAYLOAD·🇺🇸 United States

Lanzado Dec 2, 2025 desde Vandenberg Space Force Base

Loading…

Próximos Pases (próximas 24 horas)

TLE

ActualizadoSource: CelesTrak SupGP

Época: Sep 15, 2026, 02:40 UTC

1 66843C 25280Y   26258.11159722 -.00019032  00000+0 -15955-2 0  2586
2 66843  70.0008 216.7898 0003097 267.9351 356.6763 14.98326849    18

Sigue STARLINK-35997 en tiempo real con AllMySat

Download on the App Store